| time (UTC) | temp F | wind direction | speed MPH | gust MPH | rain 1hr in | rain 24hr in | rain mn in | humidity % | barometer mb |
| 20260831172529 | 87 | 254 | 1.0 | 3.0 | 0.00 | 0.00 | 0.00 | 66 | 1019.3 |
| 20260831172028 | 88 | 248 | 1.0 | 3.0 | 0.00 | 0.00 | 0.00 | 64 | 1019.4 |
| 20260831171528 | 88 | 338 | 1.0 | 2.0 | 0.00 | 0.00 | 0.00 | 65 | 1019.3 |
| 20260831171027 | 87 | 323 | 1.0 | 3.0 | 0.00 | 0.00 | 0.00 | 68 | 1019.3 |
| 20260831170526 | 86 | 347 | 0.0 | 2.0 | 0.00 | 0.00 | 0.00 | 68 | 1019.3 |
| 20260831170025 | 86 | 45 | 0.0 | 2.0 | 0.00 | 0.00 | 0.00 | 69 | 1019.5 |
| 20260831165528 | 85 | 249 | 0.0 | 1.0 | 0.00 | 0.00 | 0.00 | 73 | 1019.6 |
| 20260831165025 | 84 | 228 | 0.0 | 0.0 | 0.00 | 0.00 | 0.00 | 75 | 1019.7 |
| 20260831164527 | 84 | 228 | 0.0 | 2.0 | 0.00 | 0.00 | 0.00 | 74 | 1019.8 |
| 20260831164025 | 85 | 228 | 0.0 | 3.0 | 0.00 | 0.00 | 0.00 | 71 | 1019.8 |
| 20260831163525 | 87 | 275 | 1.0 | 3.0 | 0.00 | 0.00 | 0.00 | 71 | 1019.8 |
| 20260831163025 | 87 | 271 | 1.0 | 3.0 | 0.00 | 0.00 | 0.00 | 70 | 1019.8 |
| 20260831162524 | 86 | 204 | 0.0 | 2.0 | 0.00 | 0.00 | 0.00 | 69 | 1019.8 |
| 20260831162023 | 86 | 109 | 1.0 | 2.0 | 0.00 | 0.00 | 0.00 | 68 | 1019.9 |
| 20260831161523 | 86 | 188 | 0.0 | 5.0 | 0.00 | 0.00 | 0.00 | 70 | 1019.9 |
| 20260831161023 | 86 | 105 | 1.0 | 5.0 | 0.00 | 0.00 | 0.00 | 69 | 1019.9 |
| 20260831160521 | 86 | 119 | 1.0 | 4.0 | 0.00 | 0.00 | 0.00 | 70 | 1020.0 |
| 20260831160027 | 85 | 262 | 1.0 | 2.0 | 0.00 | 0.00 | 0.00 | 71 | 1020.0 |
| 20260831155521 | 85 | 233 | 1.0 | 3.0 | 0.00 | 0.00 | 0.00 | 71 | 1020.1 |
| 20260831155120 | 85 | 54 | 0.0 | 3.0 | 0.00 | 0.00 | 0.00 | 74 | 1020.1 |
| 20260831154521 | 85 | 313 | 1.0 | 3.0 | 0.00 | 0.00 | 0.00 | 72 | 1020.1 |
| 20260831154021 | 84 | 260 | 1.0 | 3.0 | 0.00 | 0.00 | 0.00 | 73 | 1020.1 |
| 20260831153521 | 84 | 225 | 0.0 | 3.0 | 0.00 | 0.00 | 0.00 | 74 | 1020.1 |
| 20260831153016 | 84 | 264 | 1.0 | 3.0 | 0.00 | 0.00 | 0.00 | 74 | 1020.1 |
| 20260831152515 | 83 | 176 | 0.0 | 5.0 | 0.00 | 0.00 | 0.00 | 75 | 1020.1 |
| 20260831152017 | 84 | 107 | 2.0 | 4.0 | 0.00 | 0.00 | 0.00 | 74 | 1020.3 |
| 20260831151514 | 83 | 98 | 0.0 | 3.0 | 0.00 | 0.00 | 0.00 | 76 | 1020.2 |
| 20260831151014 | 82 | 230 | 0.0 | 2.0 | 0.00 | 0.00 | 0.00 | 76 | 1020.3 |
| 20260831150513 | 82 | 230 | 1.0 | 2.0 | 0.00 | 0.00 | 0.00 | 77 | 1020.3 |
| 20260831150014 | 82 | 272 | 0.0 | 2.0 | 0.00 | 0.00 | 0.00 | 78 | 1020.4 |
| 20260831145510 | 82 | 119 | 0.0 | 2.0 | 0.00 | 0.00 | 0.00 | 77 | 1020.4 |
| 20260831145009 | 82 | 236 | 0.0 | 2.0 | 0.00 | 0.00 | 0.00 | 78 | 1020.4 |
| 20260831144517 | 81 | 213 | 0.0 | 0.0 | 0.00 | 0.00 | 0.00 | 79 | 1020.3 |
| 20260831144008 | 81 | 229 | 0.0 | 2.0 | 0.00 | 0.00 | 0.00 | 81 | 1020.4 |
| 20260831143507 | 81 | 229 | 0.0 | 3.0 | 0.00 | 0.00 | 0.00 | 80 | 1020.4 |
| 20260831143006 | 81 | 148 | 0.0 | 3.0 | 0.00 | 0.00 | 0.00 | 81 | 1020.3 |
| 20260831142505 | 80 | 170 | 0.0 | 1.0 | 0.00 | 0.00 | 0.00 | 83 | 1020.3 |
| 20260831142007 | 79 | 170 | 0.0 | 0.0 | 0.00 | 0.00 | 0.00 | 85 | 1020.3 |
| 20260831141502 | 79 | 170 | 0.0 | 1.0 | 0.00 | 0.00 | 0.00 | 85 | 1020.4 |
| 20260831141001 | 78 | 170 | 0.0 | 1.0 | 0.00 | 0.00 | 0.00 | 85 | 1020.3 |
| 20260831140600 | 77 | 170 | 0.0 | 1.0 | 0.00 | 0.00 | 0.00 | 89 | 1020.3 |
| 20260831140058 | 75 | 103 | 0.0 | 0.0 | 0.00 | 0.00 | 0.00 | 94 | 1020.3 |
| 20260831135559 | 74 | 103 | 0.0 | 0.0 | 0.00 | 0.00 | 0.00 | 95 | 1020.3 |
| 20260831135057 | 74 | 103 | 0.0 | 0.0 | 0.00 | 0.00 | 0.00 | 96 | 1020.2 |
| 20260831134559 | 74 | 103 | 0.0 | 0.0 | 0.00 | 0.00 | 0.00 | 96 | 1020.2 |
| 20260831134055 | 74 | 103 | 0.0 | 0.0 | 0.00 | 0.00 | 0.00 | 96 | 1020.2 |
| 20260831133555 | 74 | 103 | 0.0 | 1.0 | 0.00 | 0.00 | 0.00 | 97 | 1020.3 |
| 20260831133055 | 73 | 103 | 0.0 | 2.0 | 0.00 | 0.00 | 0.00 | 97 | 1020.3 |
| 20260831132554 | 73 | 103 | 0.0 | 2.0 | 0.00 | 0.00 | 0.00 | 97 | 1020.2 |
| 20260831132054 | 73 | 103 | 0.0 | 2.0 | 0.00 | 0.00 | 0.00 | 97 | 1020.3 |
| 20260831131552 | 73 | 103 | 0.0 | 2.0 | 0.00 | 0.00 | 0.00 | 97 | 1020.3 |
| 20260831131052 | 72 | 103 | 0.0 | 0.0 | 0.00 | 0.00 | 0.00 | 97 | 1020.3 |
| 20260831130552 | 72 | 103 | 0.0 | 0.0 | 0.00 | 0.00 | 0.00 | 97 | 1020.2 |
| 20260831130052 | 72 | 103 | 0.0 | 0.0 | 0.00 | 0.00 | 0.00 | 97 | 1020.1 |
| 20260831125555 | 71 | 103 | 0.0 | 0.0 | 0.00 | 0.00 | 0.00 | 97 | 1020.1 |
| 20260831125050 | 71 | 103 | 0.0 | 0.0 | 0.00 | 0.00 | 0.00 | 97 | 1020.0 |
| 20260831124550 | 71 | 103 | 0.0 | 0.0 | 0.00 | 0.00 | 0.00 | 97 | 1019.9 |
| 20260831124050 | 71 | 103 | 0.0 | 0.0 | 0.00 | 0.00 | 0.00 | 97 | 1020.0 |
| 20260831123549 | 70 | 103 | 0.0 | 0.0 | 0.00 | 0.00 | 0.00 | 96 | 1020.0 |
| 20260831123049 | 70 | 103 | 0.0 | 0.0 | 0.00 | 0.00 | 0.00 | 96 | 1019.9 |
| 20260831122548 | 70 | 103 | 0.0 | 0.0 | 0.00 | 0.00 | 0.00 | 96 | 1019.8 |
| 20260831122048 | 70 | 103 | 0.0 | 0.0 | 0.00 | 0.00 | 0.00 | 96 | 1019.9 |
| 20260831121548 | 69 | 103 | 0.0 | 0.0 | 0.00 | 0.00 | 0.00 | 96 | 1019.8 |
| 20260831121050 | 69 | 103 | 0.0 | 0.0 | 0.00 | 0.00 | 0.00 | 96 | 1019.8 |
| 20260831120551 | 69 | 103 | 0.0 | 0.0 | 0.00 | 0.00 | 0.00 | 96 | 1019.8 |
| 20260831120046 | 69 | 103 | 0.0 | 0.0 | 0.00 | 0.00 | 0.00 | 96 | 1019.8 |
| 20260831115546 | 69 | 103 | 0.0 | 0.0 | 0.00 | 0.00 | 0.00 | 96 | 1019.8 |
| 20260831115045 | 69 | 103 | 0.0 | 0.0 | 0.00 | 0.00 | 0.00 | 96 | 1019.7 |
| 20260831114547 | 69 | 103 | 0.0 | 0.0 | 0.00 | 0.00 | 0.00 | 95 | 1019.7 |
| 20260831114046 | 69 | 103 | 0.0 | 0.0 | 0.00 | 0.00 | 0.00 | 96 | 1019.5 |
| 20260831113543 | 69 | 103 | 0.0 | 0.0 | 0.00 | 0.00 | 0.00 | 96 | 1019.4 |
| 20260831113048 | 69 | 103 | 0.0 | 0.0 | 0.00 | 0.00 | 0.00 | 95 | 1019.4 |
| 20260831112543 | 69 | 103 | 0.0 | 0.0 | 0.00 | 0.00 | 0.00 | 95 | 1019.4 |
| 20260831112042 | 69 | 103 | 0.0 | 0.0 | 0.00 | 0.00 | 0.00 | 95 | 1019.4 |
| 20260831111603 | 69 | 103 | 0.0 | 0.0 | 0.00 | 0.00 | 0.00 | 95 | 1019.4 |
| 20260831111041 | 69 | 103 | 0.0 | 0.0 | 0.00 | 0.00 | 0.00 | 95 | 1019.2 |
| 20260831110540 | 69 | 103 | 0.0 | 0.0 | 0.00 | 0.00 | 0.00 | 95 | 1019.2 |
| 20260831110058 | 69 | 103 | 0.0 | 0.0 | 0.00 | 0.00 | 0.00 | 95 | 1019.1 |
| 20260831105539 | 69 | 103 | 0.0 | 0.0 | 0.00 | 0.00 | 0.00 | 95 | 1019.0 |
| 20260831105038 | 69 | 103 | 0.0 | 0.0 | 0.00 | 0.00 | 0.00 | 95 | 1018.9 |
| 20260831104538 | 70 | 103 | 0.0 | 0.0 | 0.00 | 0.00 | 0.00 | 95 | 1018.8 |
| 20260831104038 | 70 | 103 | 0.0 | 0.0 | 0.00 | 0.00 | 0.00 | 95 | 1018.8 |
| 20260831103536 | 70 | 103 | 0.0 | 0.0 | 0.00 | 0.00 | 0.00 | 95 | 1018.8 |
| 20260831103036 | 70 | 103 | 0.0 | 0.0 | 0.00 | 0.00 | 0.00 | 95 | 1018.8 |
| 20260831102537 | 70 | 103 | 0.0 | 0.0 | 0.00 | 0.00 | 0.00 | 95 | 1018.8 |
| 20260831102036 | 70 | 103 | 0.0 | 0.0 | 0.00 | 0.00 | 0.00 | 95 | 1018.8 |
| 20260831101536 | 70 | 103 | 0.0 | 0.0 | 0.00 | 0.00 | 0.00 | 95 | 1018.8 |
| 20260831101034 | 70 | 103 | 0.0 | 0.0 | 0.00 | 0.00 | 0.00 | 95 | 1018.7 |
| 20260831100533 | 70 | 103 | 0.0 | 0.0 | 0.00 | 0.00 | 0.00 | 95 | 1018.7 |
| 20260831100032 | 70 | 103 | 0.0 | 0.0 | 0.00 | 0.00 | 0.00 | 95 | 1018.6 |
| 20260831095532 | 70 | 103 | 0.0 | 0.0 | 0.00 | 0.00 | 0.00 | 95 | 1018.6 |
| 20260831095032 | 70 | 103 | 0.0 | 0.0 | 0.00 | 0.00 | 0.00 | 95 | 1018.5 |
| 20260831094538 | 70 | 103 | 0.0 | 0.0 | 0.00 | 0.00 | 0.00 | 95 | 1018.5 |
| 20260831094034 | 70 | 103 | 0.0 | 1.0 | 0.00 | 0.00 | 0.00 | 95 | 1018.4 |
| 20260831093532 | 70 | 103 | 0.0 | 2.0 | 0.00 | 0.00 | 0.00 | 95 | 1018.4 |
| 20260831093029 | 70 | 103 | 1.0 | 2.0 | 0.00 | 0.00 | 0.00 | 94 | 1018.3 |
| 20260831092528 | 70 | 103 | 0.0 | 0.0 | 0.00 | 0.00 | 0.00 | 94 | 1018.3 |
| 20260831092027 | 70 | 103 | 0.0 | 0.0 | 0.00 | 0.00 | 0.00 | 94 | 1018.2 |
| 20260831091527 | 70 | 103 | 0.0 | 0.0 | 0.00 | 0.00 | 0.00 | 95 | 1018.2 |
| 20260831091026 | 70 | 103 | 0.0 | 0.0 | 0.00 | 0.00 | 0.00 | 94 | 1018.2 |
| 20260831090526 | 70 | 103 | 0.0 | 0.0 | 0.00 | 0.00 | 0.00 | 94 | 1018.2 |
| 20260831090025 | 70 | 103 | 0.0 | 0.0 | 0.00 | 0.00 | 0.00 | 94 | 1018.2 |
| 20260831085525 | 70 | 103 | 0.0 | 0.0 | 0.00 | 0.00 | 0.00 | 94 | 1018.2 |
| 20260831085027 | 71 | 103 | 0.0 | 0.0 | 0.00 | 0.00 | 0.00 | 94 | 1018.2 |
| 20260831084535 | 71 | 103 | 0.0 | 0.0 | 0.00 | 0.00 | 0.00 | 94 | 1018.2 |
| 20260831084022 | 71 | 103 | 0.0 | 0.0 | 0.00 | 0.00 | 0.00 | 94 | 1018.1 |
| 20260831083521 | 71 | 103 | 0.0 | 0.0 | 0.00 | 0.00 | 0.00 | 94 | 1018.1 |
| 20260831083021 | 71 | 103 | 0.0 | 0.0 | 0.00 | 0.00 | 0.00 | 94 | 1018.1 |
| 20260831082624 | 71 | 103 | 0.0 | 0.0 | 0.00 | 0.00 | 0.00 | 94 | 1018.2 |
| 20260831082021 | 71 | 103 | 0.0 | 0.0 | 0.00 | 0.00 | 0.00 | 94 | 1018.1 |
| 20260831081525 | 71 | 103 | 0.0 | 0.0 | 0.00 | 0.00 | 0.00 | 94 | 1018.2 |
| 20260831081020 | 71 | 103 | 0.0 | 0.0 | 0.00 | 0.00 | 0.00 | 94 | 1018.1 |
| 20260831080520 | 71 | 103 | 0.0 | 0.0 | 0.00 | 0.00 | 0.00 | 94 | 1018.2 |
| 20260831080019 | 71 | 103 | 0.0 | 0.0 | 0.00 | 0.00 | 0.00 | 94 | 1018.1 |
| 20260831075519 | 71 | 103 | 0.0 | 0.0 | 0.00 | 0.00 | 0.00 | 94 | 1018.1 |
| 20260831075118 | 71 | 103 | 0.0 | 1.0 | 0.00 | 0.00 | 0.00 | 94 | 1018.1 |
| 20260831074555 | 71 | 103 | 0.0 | 1.0 | 0.00 | 0.00 | 0.00 | 94 | 1018.1 |
| 20260831074055 | 71 | 103 | 0.0 | 0.0 | 0.00 | 0.00 | 0.00 | 94 | 1018.0 |
| 20260831074018 | 71 | 103 | 0.0 | 0.0 | 0.00 | 0.00 | 0.00 | 94 | 1018.0 |
| 20260831073100 | 71 | 103 | 0.0 | 0.0 | 0.00 | 0.00 | 0.00 | 94 | 1018.1 |
| 20260831072533 | 71 | 103 | 0.0 | 0.0 | 0.00 | 0.00 | 0.00 | 94 | 1018.0 |
| 20260831072032 | 71 | 103 | 0.0 | 0.0 | 0.00 | 0.00 | 0.00 | 94 | 1018.1 |
| 20260831071532 | 71 | 103 | 0.0 | 0.0 | 0.00 | 0.00 | 0.00 | 94 | 1018.1 |
| 20260831071035 | 71 | 103 | 0.0 | 0.0 | 0.00 | 0.00 | 0.00 | 94 | 1018.2 |
| 20260831070532 | 71 | 103 | 0.0 | 0.0 | 0.00 | 0.00 | 0.00 | 94 | 1018.2 |
| 20260831065514 | 71 | 103 | 0.0 | 0.0 | 0.00 | 0.00 | 0.00 | 94 | 1018.1 |
| 20260831065009 | 71 | 103 | 0.0 | 0.0 | 0.00 | 0.00 | 0.00 | 94 | 1018.2 |
| 20260831064525 | 71 | 103 | 0.0 | 1.0 | 0.00 | 0.00 | 0.00 | 94 | 1018.3 |
| 20260831064008 | 72 | 103 | 0.0 | 1.0 | 0.00 | 0.00 | 0.00 | 94 | 1018.3 |
| 20260831063508 | 72 | 103 | 0.0 | 0.0 | 0.00 | 0.00 | 0.00 | 94 | 1018.2 |
| 20260831063015 | 72 | 103 | 0.0 | 0.0 | 0.00 | 0.00 | 0.00 | 94 | 1018.2 |
| 20260831062508 | 72 | 103 | 0.0 | 0.0 | 0.00 | 0.00 | 0.00 | 94 | 1018.2 |
| 20260831062008 | 72 | 103 | 0.0 | 1.0 | 0.00 | 0.00 | 0.00 | 94 | 1018.2 |
| 20260831061508 | 72 | 103 | 0.0 | 2.0 | 0.00 | 0.00 | 0.00 | 94 | 1018.2 |
| 20260831061008 | 72 | 103 | 0.0 | 1.0 | 0.00 | 0.00 | 0.00 | 94 | 1018.2 |
| 20260831060507 | 72 | 103 | 0.0 | 2.0 | 0.00 | 0.00 | 0.00 | 94 | 1018.3 |
| 20260831060006 | 72 | 103 | 0.0 | 2.0 | 0.00 | 0.00 | 0.00 | 94 | 1018.3 |
| 20260831055505 | 72 | 103 | 0.0 | 0.0 | 0.00 | 0.00 | 0.00 | 94 | 1018.2 |
| 20260831055005 | 72 | 103 | 0.0 | 0.0 | 0.00 | 0.00 | 0.00 | 94 | 1018.2 |
| 20260831054505 | 72 | 103 | 0.0 | 0.0 | 0.00 | 0.00 | 0.00 | 94 | 1018.3 |
| 20260831054005 | 72 | 103 | 0.0 | 0.0 | 0.00 | 0.00 | 0.00 | 94 | 1018.3 |
| 20260831053504 | 72 | 103 | 0.0 | 0.0 | 0.00 | 0.00 | 0.00 | 94 | 1018.2 |
| 20260831053012 | 72 | 103 | 0.0 | 1.0 | 0.00 | 0.00 | 0.00 | 94 | 1018.2 |
| 20260831052506 | 72 | 103 | 0.0 | 1.0 | 0.00 | 0.00 | 0.00 | 94 | 1018.1 |
| 20260831052004 | 72 | 103 | 0.0 | 0.0 | 0.00 | 0.00 | 0.00 | 95 | 1018.1 |
| 20260831051503 | 73 | 103 | 0.0 | 0.0 | 0.00 | 0.00 | 0.00 | 95 | 1018.1 |
| 20260831051003 | 72 | 103 | 0.0 | 0.0 | 0.00 | 0.00 | 0.00 | 95 | 1017.9 |
| 20260831050502 | 72 | 103 | 0.0 | 0.0 | 0.00 | 0.00 | 0.00 | 95 | 1018.0 |
| 20260831050004 | 72 | 103 | 0.0 | 0.0 | 0.00 | 0.00 | 0.00 | 95 | 1018.0 |
| 20260831045502 | 72 | 103 | 0.0 | 2.0 | 0.00 | 0.00 | 0.00 | 95 | 1018.1 |
| 20260831045001 | 73 | 103 | 0.0 | 2.0 | 0.00 | 0.00 | 0.00 | 95 | 1018.2 |
| 20260831044502 | 73 | 103 | 0.0 | 1.0 | 0.00 | 0.00 | 0.00 | 95 | 1018.2 |
| 20260831044003 | 73 | 103 | 0.0 | 1.0 | 0.00 | 0.00 | 0.00 | 95 | 1018.2 |
| 20260831043501 | 73 | 103 | 0.0 | 0.0 | 0.00 | 0.00 | 0.00 | 95 | 1018.2 |
| 20260831043100 | 73 | 103 | 0.0 | 0.0 | 0.00 | 0.00 | 0.00 | 94 | 1018.2 |
| 20260831042559 | 73 | 103 | 0.0 | 0.0 | 0.00 | 0.00 | 0.00 | 94 | 1018.1 |
| 20260831042059 | 73 | 103 | 0.0 | 0.0 | 0.00 | 0.00 | 0.00 | 94 | 1018.2 |
| 20260831041604 | 73 | 103 | 0.0 | 0.0 | 0.00 | 0.00 | 0.00 | 94 | 1018.2 |
| 20260831041100 | 73 | 103 | 0.0 | 0.0 | 0.00 | 0.00 | 0.00 | 94 | 1018.2 |
| 20260831040558 | 73 | 103 | 0.0 | 0.0 | 0.00 | 0.00 | 0.00 | 94 | 1018.2 |
| 20260831040056 | 73 | 103 | 0.0 | 0.0 | 0.00 | 0.00 | 0.00 | 93 | 1018.2 |
| 20260831035556 | 73 | 103 | 0.0 | 0.0 | 0.00 | 0.00 | 0.00 | 93 | 1018.2 |
| 20260831035055 | 74 | 103 | 0.0 | 0.0 | 0.00 | 0.00 | 0.00 | 92 | 1018.2 |
| 20260831034555 | 74 | 103 | 0.0 | 0.0 | 0.00 | 0.00 | 0.00 | 92 | 1018.3 |
| 20260831034055 | 74 | 103 | 0.0 | 0.0 | 0.00 | 0.00 | 0.00 | 92 | 1018.3 |
| 20260831033555 | 74 | 103 | 0.0 | 0.0 | 0.00 | 0.00 | 0.00 | 92 | 1018.2 |
| 20260831033055 | 74 | 103 | 0.0 | 0.0 | 0.00 | 0.00 | 0.00 | 91 | 1018.1 |
| 20260831032555 | 74 | 103 | 0.0 | 0.0 | 0.00 | 0.00 | 0.00 | 92 | 1018.0 |
| 20260831032055 | 74 | 103 | 0.0 | 0.0 | 0.00 | 0.00 | 0.00 | 91 | 1018.0 |
| 20260831031556 | 74 | 103 | 0.0 | 0.0 | 0.00 | 0.00 | 0.00 | 91 | 1018.1 |
| 20260831031054 | 74 | 103 | 0.0 | 0.0 | 0.00 | 0.00 | 0.00 | 91 | 1018.1 |
| 20260831030554 | 74 | 103 | 0.0 | 0.0 | 0.00 | 0.00 | 0.00 | 91 | 1018.0 |
| 20260831030059 | 74 | 103 | 0.0 | 0.0 | 0.00 | 0.00 | 0.00 | 92 | 1018.1 |
| 20260831025554 | 74 | 103 | 0.0 | 0.0 | 0.00 | 0.00 | 0.00 | 91 | 1018.1 |
| 20260831025056 | 74 | 103 | 0.0 | 0.0 | 0.00 | 0.00 | 0.00 | 91 | 1018.1 |
| 20260831024556 | 75 | 103 | 0.0 | 0.0 | 0.00 | 0.00 | 0.00 | 91 | 1018.1 |
| 20260831024054 | 75 | 103 | 0.0 | 0.0 | 0.00 | 0.00 | 0.00 | 90 | 1018.3 |
| 20260831023553 | 75 | 103 | 0.0 | 0.0 | 0.00 | 0.00 | 0.00 | 90 | 1018.2 |
| 20260831023053 | 75 | 103 | 0.0 | 0.0 | 0.00 | 0.00 | 0.00 | 90 | 1018.2 |
| 20260831022556 | 75 | 103 | 0.0 | 0.0 | 0.00 | 0.00 | 0.00 | 89 | 1018.1 |
| 20260831022053 | 76 | 103 | 0.0 | 0.0 | 0.00 | 0.00 | 0.00 | 89 | 1018.1 |
| 20260831021555 | 76 | 103 | 0.0 | 0.0 | 0.00 | 0.00 | 0.00 | 90 | 1018.0 |
| 20260831021053 | 76 | 103 | 0.0 | 0.0 | 0.00 | 0.00 | 0.00 | 89 | 1017.9 |
| 20260831020553 | 76 | 103 | 0.0 | 0.0 | 0.00 | 0.00 | 0.00 | 90 | 1017.9 |
| 20260831020053 | 76 | 103 | 0.0 | 0.0 | 0.00 | 0.00 | 0.00 | 90 | 1017.8 |
| 20260831015551 | 76 | 103 | 0.0 | 0.0 | 0.00 | 0.00 | 0.00 | 89 | 1017.8 |
| 20260831015052 | 76 | 103 | 0.0 | 0.0 | 0.00 | 0.00 | 0.00 | 89 | 1017.7 |
| 20260831014552 | 76 | 103 | 0.0 | 0.0 | 0.00 | 0.00 | 0.00 | 89 | 1017.6 |
| 20260831014051 | 76 | 103 | 0.0 | 0.0 | 0.00 | 0.00 | 0.00 | 88 | 1017.5 |
| 20260831013551 | 77 | 103 | 0.0 | 0.0 | 0.00 | 0.00 | 0.00 | 88 | 1017.5 |
| 20260831013052 | 77 | 103 | 0.0 | 0.0 | 0.00 | 0.00 | 0.00 | 87 | 1017.4 |
| 20260831012552 | 77 | 103 | 0.0 | 0.0 | 0.00 | 0.00 | 0.00 | 87 | 1017.4 |
| 20260831012050 | 77 | 103 | 0.0 | 0.0 | 0.00 | 0.00 | 0.00 | 86 | 1017.3 |
| 20260831011551 | 77 | 103 | 0.0 | 0.0 | 0.00 | 0.00 | 0.00 | 85 | 1017.4 |
| 20260831011054 | 77 | 103 | 0.0 | 0.0 | 0.00 | 0.00 | 0.00 | 85 | 1017.3 |
| 20260831010550 | 77 | 103 | 0.0 | 0.0 | 0.00 | 0.00 | 0.00 | 84 | 1017.3 |
| 20260831010055 | 78 | 103 | 0.0 | 0.0 | 0.00 | 0.00 | 0.00 | 84 | 1017.2 |
| 20260831005550 | 79 | 103 | 0.0 | 0.0 | 0.00 | 0.00 | 0.00 | 82 | 1017.2 |
| 20260831005051 | 79 | 103 | 0.0 | 0.0 | 0.00 | 0.00 | 0.00 | 79 | 1017.1 |
| 20260831004550 | 79 | 103 | 0.0 | 0.0 | 0.00 | 0.00 | 0.00 | 78 | 1017.0 |
| 20260831004050 | 79 | 103 | 0.0 | 0.0 | 0.00 | 0.00 | 0.00 | 78 | 1017.0 |
| 20260831003549 | 80 | 103 | 0.0 | 0.0 | 0.00 | 0.00 | 0.00 | 78 | 1017.0 |
| 20260831003048 | 80 | 103 | 0.0 | 0.0 | 0.00 | 0.00 | 0.00 | 78 | 1016.9 |
| 20260831002548 | 80 | 103 | 0.0 | 0.0 | 0.00 | 0.00 | 0.00 | 77 | 1017.0 |
| 20260831002048 | 81 | 103 | 0.0 | 0.0 | 0.00 | 0.00 | 0.00 | 76 | 1016.8 |
| 20260831001548 | 81 | 102 | 0.0 | 0.0 | 0.00 | 0.00 | 0.00 | 74 | 1016.8 |
| 20260831001048 | 82 | 103 | 0.0 | 0.0 | 0.00 | 0.00 | 0.00 | 73 | 1016.8 |
| 20260831000548 | 82 | 103 | 0.0 | 0.0 | 0.00 | 0.00 | 0.00 | 72 | 1016.8 |
| 20260831000057 | 83 | 103 | 0.0 | 0.0 | 0.00 | 0.00 | 0.00 | 71 | 1016.9 |
| 20260830235546 | 83 | 103 | 0.0 | 0.0 | 0.00 | 0.00 | 0.00 | 69 | 1016.9 |
| 20260830235047 | 83 | 103 | 0.0 | 0.0 | 0.00 | 0.00 | 0.00 | 69 | 1016.9 |
| 20260830234550 | 83 | 103 | 0.0 | 0.0 | 0.00 | 0.00 | 0.00 | 68 | 1016.9 |
| 20260830234046 | 83 | 103 | 0.0 | 0.0 | 0.00 | 0.00 | 0.00 | 70 | 1016.9 |
| 20260830233548 | 84 | 103 | 0.0 | 0.0 | 0.00 | 0.00 | 0.00 | 67 | 1016.9 |
| 20260830233057 | 84 | 103 | 0.0 | 0.0 | 0.00 | 0.00 | 0.00 | 65 | 1016.9 |
| 20260830232545 | 85 | 103 | 0.0 | 0.0 | 0.00 | 0.00 | 0.00 | 65 | 1016.9 |
| 20260830232045 | 86 | 103 | 0.0 | 3.0 | 0.00 | 0.00 | 0.00 | 63 | 1016.9 |
| 20260830231544 | 87 | 102 | 1.0 | 3.0 | 0.00 | 0.00 | 0.00 | 58 | 1016.9 |
| 20260830231044 | 87 | 84 | 1.0 | 3.0 | 0.00 | 0.00 | 0.00 | 61 | 1016.9 |
| 20260830230542 | 87 | 88 | 1.0 | 5.0 | 0.00 | 0.00 | 0.00 | 62 | 1016.9 |
| 20260830230042 | 87 | 90 | 2.0 | 5.0 | 0.00 | 0.00 | 0.00 | 59 | 1016.8 |
| 20260830225546 | 87 | 106 | 1.0 | 3.0 | 0.00 | 0.00 | 0.00 | 60 | 1016.8 |
| 20260830225041 | 87 | 75 | 0.0 | 5.0 | 0.00 | 0.00 | 0.00 | 62 | 1016.8 |
| 20260830224544 | 87 | 99 | 2.0 | 5.0 | 0.00 | 0.00 | 0.00 | 61 | 1016.8 |
| 20260830224039 | 88 | 109 | 2.0 | 6.0 | 0.00 | 0.00 | 0.00 | 59 | 1016.8 |
| 20260830223539 | 88 | 76 | 3.0 | 6.0 | 0.00 | 0.00 | 0.00 | 60 | 1016.9 |
| 20260830223040 | 88 | 111 | 1.0 | 4.0 | 0.00 | 0.00 | 0.00 | 60 | 1016.8 |
| 20260830222540 | 88 | 73 | 1.0 | 5.0 | 0.00 | 0.00 | 0.00 | 59 | 1016.9 |
| 20260830222038 | 89 | 81 | 2.0 | 4.0 | 0.00 | 0.00 | 0.00 | 57 | 1016.9 |
| 20260830221538 | 88 | 115 | 2.0 | 4.0 | 0.00 | 0.00 | 0.00 | 57 | 1016.9 |
| 20260830221037 | 88 | 99 | 2.0 | 6.0 | 0.00 | 0.00 | 0.00 | 60 | 1016.8 |
| 20260830220540 | 89 | 112 | 3.0 | 7.0 | 0.00 | 0.00 | 0.00 | 60 | 1017.0 |
| 20260830220055 | 89 | 72 | 2.0 | 7.0 | 0.00 | 0.00 | 0.00 | 60 | 1016.9 |
| 20260830215537 | 88 | 96 | 2.0 | 5.0 | 0.00 | 0.00 | 0.00 | 59 | 1017.0 |
| 20260830215036 | 89 | 63 | 2.0 | 7.0 | 0.00 | 0.00 | 0.00 | 60 | 1017.0 |
| 20260830214536 | 89 | 99 | 2.0 | 7.0 | 0.00 | 0.00 | 0.00 | 59 | 1017.0 |
| 20260830214036 | 88 | 96 | 1.0 | 4.0 | 0.00 | 0.00 | 0.00 | 60 | 1016.9 |
| 20260830213535 | 88 | 70 | 1.0 | 4.0 | 0.00 | 0.00 | 0.00 | 59 | 1017.0 |
| 20260830213035 | 88 | 68 | 2.0 | 4.0 | 0.00 | 0.00 | 0.00 | 63 | 1017.0 |
| 20260830212537 | 87 | 56 | 2.0 | 4.0 | 0.00 | 0.00 | 0.00 | 63 | 1017.0 |
| 20260830212035 | 87 | 95 | 0.0 | 5.0 | 0.00 | 0.00 | 0.00 | 65 | 1017.0 |
| 20260830211535 | 87 | 107 | 2.0 | 5.0 | 0.00 | 0.00 | 0.00 | 64 | 1017.1 |
| 20260830211035 | 87 | 128 | 1.0 | 6.0 | 0.00 | 0.00 | 0.00 | 65 | 1017.1 |
| 20260830210535 | 87 | 111 | 2.0 | 6.0 | 0.00 | 0.00 | 0.00 | 64 | 1017.1 |
| 20260830210034 | 88 | 109 | 2.0 | 9.0 | 0.00 | 0.00 | 0.00 | 63 | 1017.2 |
| 20260830205534 | 88 | 111 | 5.0 | 9.0 | 0.00 | 0.00 | 0.00 | 62 | 1017.2 |
| 20260830205033 | 88 | 101 | 3.0 | 6.0 | 0.00 | 0.00 | 0.00 | 63 | 1017.2 |
| 20260830204548 | 88 | 67 | 2.0 | 5.0 | 0.00 | 0.00 | 0.00 | 62 | 1017.1 |
| 20260830204033 | 89 | 99 | 1.0 | 4.0 | 0.00 | 0.00 | 0.00 | 59 | 1017.1 |
| 20260830203532 | 89 | 117 | 0.0 | 3.0 | 0.00 | 0.00 | 0.00 | 62 | 1017.3 |
| 20260830203032 | 89 | 44 | 1.0 | 3.0 | 0.00 | 0.00 | 0.00 | 60 | 1017.3 |
| 20260830202532 | 89 | 258 | 0.0 | 2.0 | 0.00 | 0.00 | 0.00 | 62 | 1017.3 |
| 20260830202032 | 89 | 270 | 1.0 | 2.0 | 0.00 | 0.00 | 0.00 | 59 | 1017.3 |
| 20260830201531 | 89 | 309 | 0.0 | 2.0 | 0.00 | 0.00 | 0.00 | 59 | 1017.3 |
| 20260830201031 | 89 | 251 | 1.0 | 2.0 | 0.00 | 0.00 | 0.00 | 60 | 1017.4 |
| 20260830200531 | 89 | 81 | 0.0 | 2.0 | 0.00 | 0.00 | 0.00 | 61 | 1017.4 |
| 20260830200036 | 89 | 311 | 1.0 | 2.0 | 0.00 | 0.00 | 0.00 | 65 | 1017.5 |
| 20260830195528 | 89 | 12 | 0.0 | 3.0 | 0.00 | 0.00 | 0.00 | 61 | 1017.6 |
| 20260830195028 | 89 | 83 | 1.0 | 3.0 | 0.00 | 0.00 | 0.00 | 60 | 1017.7 |
| 20260830194528 | 88 | 276 | 1.0 | 3.0 | 0.00 | 0.00 | 0.00 | 62 | 1017.7 |
| 20260830194028 | 88 | 57 | 0.0 | 2.0 | 0.00 | 0.00 | 0.00 | 62 | 1017.7 |
| 20260830193526 | 88 | 57 | 1.0 | 5.0 | 0.00 | 0.00 | 0.00 | 61 | 1017.8 |
| 20260830193026 | 88 | 89 | 2.0 | 5.0 | 0.00 | 0.00 | 0.00 | 63 | 1017.9 |
| 20260830192525 | 87 | 84 | 1.0 | 2.0 | 0.00 | 0.00 | 0.00 | 65 | 1018.1 |
| 20260830192025 | 88 | 79 | 0.0 | 5.0 | 0.00 | 0.00 | 0.00 | 63 | 1018.1 |
| 20260830191606 | 88 | 79 | 0.0 | 5.0 | 0.00 | 0.00 | 0.00 | 59 | 1018.2 |
| 20260830191023 | 89 | 107 | 1.0 | 4.0 | 0.00 | 0.00 | 0.00 | 60 | 1018.3 |
| 20260830190521 | 88 | 5 | 0.0 | 2.0 | 0.00 | 0.00 | 0.00 | 60 | 1018.4 |
| 20260830190023 | 88 | 298 | 0.0 | 4.0 | 0.00 | 0.00 | 0.00 | 63 | 1018.4 |
| 20260830185519 | 88 | 71 | 2.0 | 6.0 | 0.00 | 0.00 | 0.00 | 62 | 1018.6 |
| 20260830185020 | 88 | 86 | 2.0 | 6.0 | 0.00 | 0.00 | 0.00 | 62 | 1018.6 |
| 20260830184518 | 87 | 76 | 0.0 | 5.0 | 0.00 | 0.00 | 0.00 | 61 | 1018.6 |
| 20260830184018 | 87 | 281 | 0.0 | 2.0 | 0.00 | 0.00 | 0.00 | 65 | 1018.7 |
| 20260830183517 | 88 | 281 | 1.0 | 2.0 | 0.00 | 0.00 | 0.00 | 62 | 1018.8 |
| 20260830183016 | 88 | 284 | 1.0 | 2.0 | 0.00 | 0.00 | 0.00 | 68 | 1018.9 |
| 20260830182519 | 87 | 261 | 0.0 | 2.0 | 0.00 | 0.00 | 0.00 | 65 | 1019.0 |
| 20260830182017 | 87 | 261 | 0.0 | 2.0 | 0.00 | 0.00 | 0.00 | 65 | 1019.2 |
| 20260830181515 | 87 | 225 | 1.0 | 3.0 | 0.00 | 0.00 | 0.00 | 66 | 1019.1 |
| 20260830181015 | 87 | 67 | 0.0 | 3.0 | 0.00 | 0.00 | 0.00 | 67 | 1019.1 |
| 20260830180515 | 87 | 223 | 0.0 | 5.0 | 0.00 | 0.00 | 0.00 | 64 | 1019.3 |
| 20260830180015 | 87 | 97 | 1.0 | 5.0 | 0.00 | 0.00 | 0.00 | 64 | 1019.4 |
| 20260830175514 | 88 | 104 | 2.0 | 7.0 | 0.00 | 0.00 | 0.00 | 64 | 1019.4 |
| 20260830175015 | 87 | 92 | 2.0 | 6.0 | 0.00 | 0.00 | 0.00 | 66 | 1019.5 |
| 20260830174513 | 86 | 237 | 1.0 | 3.0 | 0.00 | 0.00 | 0.00 | 66 | 1019.6 |
| 20260830174013 | 86 | 67 | 1.0 | 5.0 | 0.00 | 0.00 | 0.00 | 64 | 1019.6 |
| 20260830173512 | 87 | 79 | 2.0 | 6.0 | 0.00 | 0.00 | 0.00 | 65 | 1019.7 |
| 20260830173013 | 87 | 94 | 2.0 | 6.0 | 0.00 | 0.00 | 0.00 | 66 | 1019.7 |